www.pogodaiklimat.ru

Погода и климат >> Архив погоды >> Россия >> Чукотка >> Чаун


ПОГОДА в Чауне

  • Прогноз погоды в Чауне
  • Монитор погоды в Чауне

АРХИВ ПОГОДЫ в Чауне

Время (UTC), дата Ветер
(напр.,м/с)
 
Видим.   Явления Облачность Т
(С)
Тd
(С)
f
(%)
Тe
(С)
Тes
(С)
Комфортность P
(гПа)
Po
(гПа)
Тmin
(С)
Tmax
(С)
R
(мм)
R24
(мм)
S
(см)
00 13.08 СЗ 6
{7}
20 км 9/9 700 м
[Sc]
+10.9 +7.8 81 +8 +8 1008.6 1008.0
03 13.08 СЗ 7
{11}
20 км 10/10 540 м
[Sc]
+9.5 +8.1 91 +5 +5 1008.8 1008.2
06 13.08 СЗ 7
{10}
20 км 9/4 200 м
[St Ac trans]
+9.3 +7.8 90 +5 +5 1008.6 1008.0
09 13.08 СЗ 8-10
{11}
20 км 9/4 200 м
[St Ac trans]
+7.3 +5.9 91 +2 +2 1009.1 1008.5 +11.3
12 13.08 СЗ 4
{10}
20 км 9/9 240 м
[St]
+7.7 +6.2 90 +4 +4 1009.8 1009.2
15 13.08 ЮВ 3
{5}
20 км 9/4 200 м
[St Ac trans]
+6.0 +2.6 79 +3 +3 1010.6 1010.0
18 13.08 ЮВ 1
{6}
20 км 9/3 200 м
[St Ac trans]
+4.6 +1.8 82 +3 +4 1011.7 1011.1
21 13.08 ЮВ 3
{6}
20 км 9/3 200 м
[St Ac trans]
+5.5 +1.8 77 +2 +3 1012.7 1012.1 +4.4
00 14.08 СЗ 6
{9}
20 км 9/3 200 м
[St Ac trans]
+6.9 +2.3 72 +3 +4 1013.5 1012.9
03 14.08 В 3
{9}
20 км 9/3 200 м
[St Ac trans]
+6.6 +1.9 72 +4 +5 1014.8 1014.2
06 14.08 С 10-13
{14}
20 км 8/3 200 м
[St Ac trans]
+5.9 +1.7 74 0 0 1016.4 1015.8
09 14.08 СЗ 8-14
{14}
20 км 9/3 200 м
[St Ac trans]
+3.6 +1.0 83 -3 -3 1017.8 1017.2 +7.4
12 14.08 СЗ 11-14
{14}
20 км 10/3 200 м
[St Ac und]
+2.4 +0.5 87 -5 -5 1018.1 1017.5
15 14.08 СЗ 12-16
{16}
20 км 10/8 180 м
[St Ac und]
+1.6 -0.0 89 -7 -7 1017.8 1017.2
18 14.08 СЗ 11-15
{18}
4000 м слаб. дождь 10/8 180 м
[Frnb As op]
+1.9 +0.8 92 -6 -6 1017.8 1017.2
21 14.08 СЗ 11-15
{17}
4000 м слаб. дождь 10/8 210 м
[Frnb As op]
+2.6 +1.6 93 -5 -5 1018.1 1017.5 +1.3 0.6
00 15.08 СЗ 10-13
{15}
4000 м слаб. дождь 10/8 300 м
[Frnb As op]
+3.2 +1.7 90 -4 -4 1018.8 1018.2
03 15.08 СЗ 8-10
{13}
20 км {дождь} 9/9 660 м
[Sc Ci fib]
+6.0 +3.1 82 +1 +1 1020.3 1019.7
06 15.08 СВ 2
{12}
4000 м слаб. дождь 10/8 330 м
[Frnb As op]
+5.3 +2.9 84 +3 +3 1022.5 1021.9
09 15.08 СЗ 7
{11}
20 км {дождь} 10/10 840 м
[Sc]
+5.2 +3.0 86 -0 -0 1024.2 1023.6 +6.9 1
12 15.08 СЗ 7
{11}
20 км {дождь} 10/10 960 м
[Sc]
+4.4 +2.7 89 -1 -1 1025.4 1024.8
15 15.08 СЗ 7
{11}
20 км 10/10 960 м
[Sc]
+4.6 +2.9 89 -1 -1 1026.4 1025.8
18 15.08 СЗ 6
{10}
20 км 10/10 960 м
[Sc]
+5.1 +3.2 88 -0 -0 1027.4 1026.8
21 15.08 СЗ 5
{9}
20 км 10/10 240 м
[St]
+5.6 +3.7 88 +1 +1 1029.5 1028.9 +4.2
00 16.08 СЗ 7
{10}
20 км 9/9 270 м
[St]
+5.5 +3.8 89 0 0 1031.0 1030.4
03 16.08 СЗ 4
{10}
20 км 10/10 180 м
[St]
+4.9 +3.2 89 +1 +1 1031.9 1031.3
06 16.08 СЗ 3
{7}
20 км 10/10 180 м
[St]
+4.6 +3.1 90 +1 +1 1032.5 1031.9
09 16.08 ЮВ 1
{4}
20 км 10/10 120 м
[St]
+3.8 +2.3 90 +2 +2 1033.3 1032.7 +5.9
12 16.08 Ю 2
{3}
500 м туман 10/10 90 м
[St]
+3.0 +2.7 98 -0 -0 1034.4 1033.8
15 16.08 В 2
{3}
2000 м в посл. час туман 8/8 200 м
[St]
+1.8 +1.3 96 -2 -2 1034.7 1034.1
18 16.08 ЮВ 3
{5}
50 км {туман} ясно +2.7 +1.7 93 -2 -1 1035.5 1034.9
21 16.08 ЮВ 5
{7}
50 км ясно +5.8 +3.2 83 +1 +3 1036.2 1035.6 +1.6
00 17.08 ЮВ 5
{8}
50 км ясно +9.8 +4.0 67 +7 +10 1035.8 1035.2
03 17.08 ЮВ 7
{9}
50 км ясно +14.1 +5.1 55 +12 +14 1034.8 1034.2
06 17.08 ЮВ 6
{10}
50 км ясно +15.6 +5.3 50 +14 +15 1034.0 1033.4
09 17.08 ЮВ 6
{9}
50 км ясно +11.1 +5.9 70 +8 +8 1033.8 1033.2 +15.7
12 17.08 ЮВ 7
{9}
50 км ясно +9.1 +5.8 80 +5 +5 1034.3 1033.7
15 17.08 ЮВ 7
{10}
50 км ясно +8.5 +5.5 81 +4 +4 1034.3 1033.7
18 17.08 ЮВ 8-11
{11}
50 км ясно +8.8 +5.3 79 +4 +5 1034.3 1033.7
21 17.08 ЮВ 10-14
{14}
50 км 9/0
[Ac lent Ci fib]
+11.8 +6.5 70 +8 +8 1034.2 1033.6 +8.1
00 18.08 ЮВ 9-12
{14}
50 км 9/0
[Ac trans Ci fib]
+13.5 +7.4 67 +11 +11 1032.8 1032.2
03 18.08 ЮВ 9-12
{13}
50 км 9/0
[Ac trans Ci fib]
+14.8 +7.1 60 +13 +13 1031.1 1030.5
06 18.08 ЮВ 9-12
{14}
50 км 9/0
[Ac trans Ci fib]
+14.1 +7.8 66 +12 +12 1030.0 1029.4
09 18.08 ЮВ 9-11
{13}
50 км 9/0
[Ac trans Ci fib]
+12.8 +8.1 73 +10 +10 1028.8 1028.2 +15.4
12 18.08 ЮВ 8-12
{13}
20 км 10/0
[Ac und]
+11.3 +8.0 80 +8 +8 1028.2 1027.6
15 18.08 ЮВ 9-12
{12}
50 км 10/0
[Ac und]
+10.5 +8.2 86 +6 +6 1027.5 1026.9
18 18.08 ЮВ 7-10
{12}
20 км 10/0
[Ac und]
+9.6 +8.0 90 +6 +6 1027.0 1026.4
21 18.08 ЮВ 6
{10}
20 км в посл. час дождь 9/3 200 м
[St Ac trans]
+10.4 +9.0 91 +7 +7 1026.6 1026.0 +9.6 0.3
00 19.08 ЮВ 5
{9}
20 км {дождь} 9/0
[Ac trans]
+13.7 +9.8 77 +12 +13 1026.2 1025.6
03 19.08 ЮВ 4
{7}
20 км 9/0
[Ac trans]
+14.4 +9.2 71 +13 +15 1025.6 1025.0
06 19.08 Ю 1
{5}
20 км 9/0
[Ac lent Ci fib]
+15.0 +9.2 68 +16 +16 1025.6 1025.0
09 19.08 СВ 2
{3}
50 км 6/0
[Ac lent Ci fib]
+10.6 +9.2 91 +9 +9 1026.0 1025.4 +15.2
12 19.08 В 2
{4}
50 км 4/0
[Ac lent Ci fib]
+8.3 +7.0 92 +6 +6 1026.2 1025.6
15 19.08 ЮВ 2
{4}
500 м туман 3/0
[Ac lent Ci fib]
+6.4 +6.2 99 +4 +4 1026.4 1025.8
18 19.08 ЮВ 3
{5}
500 м туман 4/0
[Ac lent Ci fib]
+6.3 +6.1 99 +3 +3 1026.7 1026.1
21 19.08 ЮВ 4
{5}
20 км {туман} 3/0
[Ci fib]
+10.0 +9.2 95 +7 +9 1026.6 1026.0 +5.2

 

Местоположение метеостанции Чаун (Чукотка, Россия): широта 68.88 долгота 170.70 высота над уровнем моря 5 м.

В архиве по умолчанию представлена погода в Чауне за последнюю неделю. Архивные данные за месяц целиком и за предыдущие месяцы, начиная с января 2011 года, Вы можете получить, выбрав интересующий диапазон дат из раскрывающегося списка и нажав кнопку "Ввод!".


*Определитесь, кто Вы:
робот инопланетянин человек

Внимание! Время в таблицах - всемирное. Для получения местного времени необходимо прибавить поправку, которая равна 12 ч.

Смотрите также архив погоды в соседних городах и на ближайших метеорологических станциях:

Погода на 21 км (Чукотка, Россия) (84 км)
Погода в Комсомольской (Чукотка, Россия) (89 км)
Погода в Певеке (Чукотка, Россия) (93 км)
Погода в Майской (Чукотка, Россия) (117 км)
Погода в Валькаркае (Чукотка, Россия) (134 км)
Погода в Паляваам-Глубокой (Чукотка, Россия) (137 км)
Погода на Айон Острове (Чукотка, Россия) (160 км)
Погода в Раучуе (Чукотка, Россия) (180 км)
Погода в Билибино (Чукотка, Россия) (198 км)
Погода в Илирнее (Чукотка, Россия) (215 км)

Пояснения к столбцам:

Ветер - указаны скорость ветра в м/с - средняя за 10 мин, порывы в срок и между сроками (в фигурных скобках) и направление, откуда дует ветер: С - северный, СВ - северо-восточный, В - восточный, ЮВ - юго-восточный, Ю - южный, ЮЗ - юго-западный, З - западный, СЗ - северо-западный.
Видимость - горизонтальная дальность видимости в метрах или километрах. При видимости от 1 до 10 км при отсутствии осадков обычно наблюдается дымка, при ухудшении видимости до 1 км и менее - туман. В сухую погоду видимость может ухудшаться дымом, пылью или мглою.
Явления - указаны атмосферные явления, наблюдавшиеся в срок или в последний час перед сроком; фигурными скобками обозначены явления, наблюдавшиеся между сроками (за 1-3 часа до срока); квадратными скобками обозначены град или гололедные отложения с указанием их диаметра в мм.
Облачность - указаны через наклонную черту общая и нижняя облачность в баллах и высота нижней границы облаков в метрах; квадратными скобками обозначены формы облаков: Ci - перистые, Cs - перисто-слоистые, Cc - перисто-кучевые, Ac - высококучевые, As - высокослоистые, Sc - слоисто-кучевые, Ns - слоисто-дождевые, Cu - кучевые, Cb - кучево-дождевые. Подробнее классификацию облаков см. в Атласе облаков (PDF).
T - Температура воздуха - температура, измеренная на высоте 2 м над землей.
Td - Температура точки росы - температура, при понижении до которой содержащийся в воздухе водяной пар достигнет насыщения.
f - Относительная влажность воздуха - влажноcть воздуха, измеренная на высоте 2 м над землей.
Te - Эффективная температура - температура, которую ощущает одетый по сезону человек в тени. Характеристика душности погоды. При расчете учитывается влияние влажности воздуха и скорости ветра на теплоощущения человека.
Tes - Эффективная температура на солнце - температура, которую ощущает человек, с поправкой на солнечный нагрев. Характеристика знойности погоды. Зависит от высоты солнца над горизонтом, облачности и скорости ветра. Ночью, в пасмурную погоду, а также при ветре 12 м/с и более поправка равна нулю.
P - Атмосферное давление - приведенное к уровню моря атмосферное давление.
Po - Атмосферное давление - измеренное на уровне метеостанции атмосферное давление.
Tmin - Минимальная температура - минимум температуры воздуха на высоте 2 м над землей.
Tmax - Максимальная температура - максимум температуры воздуха на высоте 2 м над землей.
R - Количество осадков - Количество выпавших осадков за период времени, мм. При наведении курсора мыши на число - период времени, за который выпало указанное количество осадков.
R24 - Количество осадков - Количество выпавших осадков за 24 часа, мм.
S - Снежный покров - Высота снежного покрова, см. При наведении курсора мыши на число - состояние снежного покрова и степень покрытия местности в баллах.